Waarnemingen

Advertentie
Mijn weer
List/Sylt, Duitsland (10020): temperatuur & dauwpunt: 19.04.2018 14:00:00 - 25.04.2018 14:00:00 (CEST)List/Sylt, Duitsland (10020): temperatuur 5cm & temperatuur -5cm: 19.04.2018 14:00:00 - 25.04.2018 14:00:00 (CEST)List/Sylt, Duitsland (10020): temperatuur -20cm: 19.04.2018 14:00:00 - 25.04.2018 14:00:00 (CEST)List/Sylt, Duitsland (10020): windsnelheid & windstoten: 19.04.2018 14:00:00 - 25.04.2018 14:00:00 (CEST)List/Sylt, Duitsland (10020): windrichting: 19.04.2018 14:00:00 - 25.04.2018 14:00:00 (CEST)List/Sylt, Duitsland (10020): luchtdruk: 19.04.2018 14:00:00 - 25.04.2018 14:00:00 (CEST)List/Sylt, Duitsland (10020): zicht: 19.04.2018 14:00:00 - 25.04.2018 14:00:00 (CEST)List/Sylt, Duitsland (10020): Zonneschijnduur: 19.04.2018 14:00:00 - 25.04.2018 14:00:00 (CEST)List/Sylt, Duitsland (10020): neerslag: 19.04.2018 14:00:00 - 25.04.2018 14:00:00 (CEST)
Datum & Tijd tt [°C] td [°C] tt 5cm [°C] tt -5cm [°C] tt -20cm [°C] ff [km/u] ff [kn] fx [km/u] fx [kn] dd ppp [hPa] vv [km] sd [min] rr [mm]
25.04.2018 14:00:00 9,6 6,6 14,4 12,0 10,7 27 14 41 22 W 1006,4 8 53 0,0
25.04.2018 13:00:00 8,2 6,4 11,5 11,5 10,5 32 17 43 23 WNW 1005,6 6 43 0,0
25.04.2018 12:00:00 9,1 6,4 12,6 10,9 10,4 29 15 38 21 NW 1004,7 8 45 0,0
25.04.2018 11:00:00 8,3 5,8 11,7 10,5 10,3 27 15 41 22 NNW 1003,4 11 22 0,0
25.04.2018 10:00:00 7,3 5,8 8,2 10,0 10,3 32 18 46 25 N 1002,0 25 3 0,1
25.04.2018 09:00:00 6,0 5,3 6,5 9,7 10,4 34 18 50 27 N 1000,9 13 0 0,6
25.04.2018 08:00:00 6,6 6,2 6,7 9,7 10,5 27 15 39 21 NNO 1000,2 7 0 0,7
25.04.2018 07:00:00 6,7 6,3 6,6 9,7 10,6 27 14 37 20 NO 999,7 3,6 0 2,3
25.04.2018 06:00:00 6,6 6,3 6,5 9,9 10,8 22 12 36 19 ONO 1000,4 1,9 0 2,3
25.04.2018 05:00:00 6,6 6,0 6,5 10,1 11,0 24 13 34 18 O 1001,5 3,9 0 3,7
25.04.2018 04:00:00 6,9 5,9 6,5 10,6 11,2 18 10 24 13 ZO 1003,2 3,3 0 2,2
25.04.2018 03:00:00 7,1 5,7 6,5 10,8 11,3 16 8 21 11 Z 1004,5 8 0 1,0
25.04.2018 02:00:00 6,9 6,2 6,7 11,0 11,4 5 3 12 6 WZW 1005,9 6 0 0,7
25.04.2018 01:00:00 6,9 6,3 6,6 11,1 11,5 9 5 22 12 ZW 1007,0 9 0 0,0
25.04.2018 00:00:00 7,0 6,3 6,6 11,3 11,6 17 9 34 18 WZW 1008,3 10 0 0,4
24.04.2018 23:00:00 7,2 6,5 6,8 11,5 11,7 24 13 40 21 ZW 1009,1 7 0 0,1
24.04.2018 22:00:00 7,5 6,1 7,4 11,7 11,9 27 15 39 21 ZW 1009,6 13 0 0,0
24.04.2018 21:00:00 7,3 6,1 7,0 12,0 12,0 25 13 35 19 WZW 1009,7 11 0 0,0
24.04.2018 20:00:00 7,7 5,8 7,6 12,5 12,1 24 13 42 23 WZW 1009,7 14 59 0,0
24.04.2018 19:00:00 8,5 5,9 10,4 12,9 12,1 32 18 45 25 WZW 1010,1 5 47 0,0
24.04.2018 18:00:00 8,8 6,0 10,9 13,3 12,0 29 15 46 25 WZW 1010,2 10 11 0,0
24.04.2018 17:00:00 9,1 5,9 11,6 13,6 11,9 32 18 50 27 WZW 1009,9 7 56 0,0
24.04.2018 16:00:00 9,7 5,8 14,9 13,5 11,7 37 20 50 27 WZW 1010,2 6 60 0,0
24.04.2018 15:00:00 10,0 6,0 15,0 13,1 11,5 33 18 53 29 WZW 1010,3 4,8 35 0,0
24.04.2018 14:00:00 9,9 5,6 15,2 12,7 11,3 41 22 56 31 WZW 1010,0 7 39 0,0
24.04.2018 13:00:00 10,0 6,0 14,1 12,3 11,1 37 20 54 29 WZW 1009,7 3,5 49 0,0
24.04.2018 12:00:00 10,1 6,2 14,0 11,7 11,0 37 20 53 29 WZW 1009,0 3,6 60 0,0
24.04.2018 11:00:00 9,9 6,6 13,6 11,1 11,0 34 18 56 31 WZW 1008,4 4,5 21 0,0
24.04.2018 10:00:00 8,7 7,0 9,7 10,9 11,1 34 18 52 28 WZW 1007,9 9 0 0,0
24.04.2018 09:00:00 8,8 7,1 9,5 10,8 11,1 32 17 54 29 WZW 1007,5 9 0 0,0
24.04.2018 08:00:00 8,4 7,2 8,5 10,8 11,2 36 19 55 30 ZW 1007,2 8 0 0,0
24.04.2018 07:00:00 8,5 7,9 8,4 10,9 11,3 38 20 55 30 ZW 1006,9 7 0 0,0
24.04.2018 06:00:00 8,6 7,3 8,5 11,0 11,4 36 19 55 30 ZW 1007,7 7 0 0,0
24.04.2018 05:00:00 9,1 7,5 9,0 11,1 11,5 39 21 57 31 ZW 1008,2 8 0 0,0
24.04.2018 04:00:00 10,1 7,3 9,8 11,1 11,6 37 20 54 29 ZZW 1008,6 17 0 0,0
24.04.2018 03:00:00 9,4 5,9 9,0 11,2 11,7 35 19 46 25 ZW 1009,2 22 0 0,0
24.04.2018 02:00:00 8,6 6,0 8,2 11,3 11,8 30 16 42 23 ZW 1010,4 15 0 0,0
24.04.2018 01:00:00 8,3 6,0 7,9 11,5 12,0 29 16 42 23 ZW 1011,0 19 0 0,0
24.04.2018 00:00:00 7,7 6,0 6,9 11,6 12,2 29 16 42 23 ZW 1011,7 17 0 0,0
23.04.2018 23:00:00 7,6 6,5 7,1 11,9 12,3 29 15 41 22 WZW 1011,8 15 0 0,0
23.04.2018 22:00:00 7,2 6,1 6,2 12,2 12,5 25 13 42 23 WZW 1011,8 12 0 0,0
23.04.2018 21:00:00 7,4 6,1 6,5 12,7 12,7 27 15 45 25 WZW 1011,8 13 2 0,0
23.04.2018 20:00:00 7,8 6,1 7,5 13,2 12,8 24 13 47 26 WZW 1011,5 12 38 0,0
23.04.2018 19:00:00 8,6 6,5 9,4 13,7 12,8 31 17 52 28 WZW 1011,6 15 26 0,0
23.04.2018 18:00:00 9,0 6,5 11,2 14,1 12,8 37 20 52 28 WZW 1011,6 10 2 0,0
23.04.2018 17:00:00 9,2 6,5 11,6 14,5 12,7 39 21 61 33 WZW 1011,6 8 29 0,0
23.04.2018 16:00:00 10,9 7,0 15,9 14,6 12,5 42 23 57 31 WZW 1011,3 2,9 60 0,0
23.04.2018 15:00:00 11,3 7,1 16,9 14,4 12,3 38 20 53 29 WZW 1011,1 2,6 60 0,0
23.04.2018 14:00:00 10,3 6,4 16,3 14,0 12,1 37 20 53 29 WZW 1010,6 4,8 59 0,0
23.04.2018 13:00:00 10,5 6,3 15,9 13,5 11,9 40 21 53 28 WZW 1010,2 6 60 0,0
23.04.2018 12:00:00 10,9 6,7 15,7 12,9 11,7 34 18 46 25 W 1009,9 6 60 0,0
23.04.2018 11:00:00 10,6 7,0 15,3 12,3 11,6 27 15 41 22 WZW 1009,3 4,6 60 0,0
23.04.2018 10:00:00 10,1 6,9 13,7 11,9 11,6 27 15 35 19 W 1008,7 8 60 0,0
23.04.2018 09:00:00 9,4 6,9 11,3 11,6 11,7 24 13 38 20 W 1008,0 16 47 0,0
23.04.2018 08:00:00 7,9 7,9 8,6 11,5 11,8 21 11 34 18 W 1007,6 2,6 10 0,0
23.04.2018 07:00:00 8,5 8,1 8,7 11,6 11,9 25 14 42 23 W 1006,7 0,7 0 0,0
23.04.2018 06:00:00 8,5 7,7 8,4 11,8 12,0 31 17 43 23 WZW 1006,5 1,7 0 0,1
23.04.2018 05:00:00 10,3 8,7 10,0 11,9 12,1 16 8 22 12 ZW 1006,1 2,5 0 0,0
23.04.2018 04:00:00 11,0 9,2 10,2 12,1 12,2 14 7 18 10 ZZW 1006,0 3,3 0 0,0
23.04.2018 03:00:00 9,9 8,2 9,5 12,2 12,3 16 8 39 21 ZW 1006,3 3,4 0 0,0
23.04.2018 02:00:00 13,9 10,7 12,6 12,4 12,4 30 16 43 23 ZZW 1006,5 11 0 0,0
23.04.2018 01:00:00 12,5 8,9 11,3 12,5 12,5 24 13 32 17 ZO 1006,9 18 0 0,0
23.04.2018 00:00:00 11,9 7,8 10,5 12,7 12,7 15 8 35 19 OZO 1007,2 20 0 0,0
22.04.2018 23:00:00 11,9 7,5 10,9 13,0 12,8 29 15 38 21 OZO 1007,5 28 0 0,0
22.04.2018 22:00:00 12,2 7,4 11,0 13,3 13,0 25 13 32 17 OZO 1008,3 31 0 0,0
22.04.2018 21:00:00 13,2 8,1 12,1 13,8 13,1 26 14 34 18 O 1008,9 27 0 0,0
22.04.2018 20:00:00 14,0 7,9 13,7 14,3 13,1 24 13 35 19 OZO 1009,3 30 38 0,0
22.04.2018 19:00:00 15,5 7,5 16,5 14,8 13,1 23 13 32 17 OZO 1010,0 23 52 0,0
22.04.2018 18:00:00 17,0 6,6 19,8 15,4 12,9 22 12 30 16 OZO 1010,4 12 60 0,0
22.04.2018 17:00:00 18,6 6,3 23,5 15,6 12,7 18 10 26 14 OZO 1011,1 20 60 0,0
22.04.2018 16:00:00 17,8 7,5 24,8 15,4 12,3 17 9 24 13 ZO 1012,1 23 53 0,0
22.04.2018 15:00:00 16,8 7,1 23,6 15,0 12,0 14 7 21 11 ZO 1013,0 17 49 0,0
22.04.2018 14:00:00 15,2 8,1 22,5 14,3 11,7 13 7 23 12 ZZO 1014,0 32 55 0,0
22.04.2018 13:00:00 14,0 6,7 22,0 13,6 11,3 16 9 24 13 ZO 1014,9 12 60 0,0
22.04.2018 12:00:00 13,3 8,0 19,7 12,7 11,1 17 9 22 12 ZO 1015,6 22 60 0,0
22.04.2018 11:00:00 11,0 6,8 17,2 11,9 10,9 17 9 25 13 OZO 1016,4 14 60 0,0
22.04.2018 10:00:00 9,3 7,2 13,2 11,2 10,9 16 9 20 11 OZO 1016,8 26 55 0,0
22.04.2018 09:00:00 6,7 6,6 8,9 10,8 10,9 13 7 18 10 OZO 1017,6 6 3 0,0
22.04.2018 08:00:00 7,4 7,4 8,2 10,7 11,0 9 5 15 8 O 1017,7 5 0 0,0
22.04.2018 07:00:00 6,7 6,7 7,0 10,7 11,1 8 5 13 7 ZO 1017,7 1,3 0 0,0
22.04.2018 06:00:00 6,4 6,4 6,7 10,7 11,2 5 3 11 6 ZO 1018,1 0,1 0 0,0
22.04.2018 05:00:00 4,7 4,7 5,4 10,8 11,4 2 1 6 3 NNO 1018,6 0,1 0 0,0
22.04.2018 04:00:00 4,8 4,8 4,9 11,0 11,5 2 1 6 3 OZO 1018,8 0,1 0 0,0
22.04.2018 03:00:00 5,4 5,4 5,7 11,1 11,7 5 3 10 5 NNW 1019,3 0,1 0 0,0
22.04.2018 02:00:00 5,4 5,4 5,7 11,3 11,8 9 5 15 8 NW 1019,9 0,1 0 0,0
22.04.2018 01:00:00 5,2 5,2 5,4 11,5 12,0 9 5 16 9 W 1020,1 0,1 0 0,0
22.04.2018 00:00:00 5,4 5,4 5,5 11,7 12,2 11 6 18 10 WNW 1020,4 0,1 0 0,0
21.04.2018 23:00:00 5,3 5,3 5,2 12,0 12,4 12 7 17 9 WNW 1020,4 0,1 0 0,0
21.04.2018 22:00:00 6,1 5,8 4,8 12,4 12,6 10 5 13 7 W 1020,7 4,5 0 0,0
21.04.2018 21:00:00 6,5 5,9 5,1 13,0 12,8 9 5 14 8 WNW 1020,8 11 25 0,0
21.04.2018 20:00:00 8,1 6,2 8,9 13,7 12,9 11 6 18 10 WNW 1020,7 20 60 0,0
21.04.2018 19:00:00 9,3 6,2 12,6 14,3 13,0 14 8 24 13 NW 1020,9 15 60 0,0
21.04.2018 18:00:00 9,9 6,3 14,5 14,9 12,9 20 11 28 15 WNW 1021,3 9 60 0,0
21.04.2018 17:00:00 9,8 6,3 15,9 15,4 12,7 21 12 33 18 WNW 1021,8 6 60 0,0
21.04.2018 16:00:00 11,9 6,5 18,8 15,4 12,4 20 11 26 14 WZW 1022,0 9 60 0,0
21.04.2018 15:00:00 12,6 6,4 20,8 15,1 12,0 19 10 23 12 W 1022,5 9 60 0,0
21.04.2018 14:00:00 10,8 5,7 19,8 14,4 11,6 14 8 20 11 W 1022,8 12 60 0,0
21.04.2018 13:00:00 10,3 6,0 18,5 13,4 11,3 13 7 20 11 WNW 1023,0 16 60 0,0
21.04.2018 12:00:00 8,4 5,3 16,3 12,5 11,0 11 6 17 9 W 1023,3 26 60 0,0
21.04.2018 11:00:00 7,6 5,7 13,8 11,6 10,9 11 6 16 9 NW 1023,0 22 48 0,0
21.04.2018 10:00:00 6,5 6,5 10,7 10,8 10,9 8 4 27 15 NW 1022,4 2,2 9 0,0
21.04.2018 09:00:00 5,7 5,7 7,0 10,4 11,0 19 11 32 17 NW 1022,0 0,1 0 0,0
21.04.2018 08:00:00 5,8 5,8 6,4 10,4 11,1 21 11 28 15 NW 1021,7 0,1 0 0,0
21.04.2018 07:00:00 6,5 6,3 6,5 10,4 11,3 17 9 28 15 WNW 1021,2 0,2 0 0,0
21.04.2018 06:00:00 6,3 6,0 5,4 10,6 11,5 19 10 24 13 WNW 1020,8 2,5 0 0,0
21.04.2018 05:00:00 6,0 5,7 4,8 10,8 11,7 12 7 16 9 WNW 1020,8 1,5 0 0,0
21.04.2018 04:00:00 6,4 6,2 5,5 11,1 11,9 13 7 26 14 NW 1020,9 1,4 0 0,0
21.04.2018 03:00:00 6,7 6,4 5,9 11,4 12,1 21 11 27 15 NW 1020,5 1,4 0 0,0
21.04.2018 02:00:00 7,2 6,7 6,4 11,6 12,3 24 13 31 17 NW 1020,6 1,7 0 0,0
21.04.2018 01:00:00 7,5 6,9 6,7 11,9 12,5 24 13 32 17 NW 1020,6 1,5 0 0,0
21.04.2018 00:00:00 7,6 6,9 6,8 12,2 12,7 23 12 29 16 WNW 1020,3 1,1 0 0,0
20.04.2018 23:00:00 7,6 6,7 6,7 12,6 12,9 23 12 34 19 WNW 1020,3 1,3 0 0,0
20.04.2018 22:00:00 7,9 6,4 6,9 13,0 13,1 14 8 25 14 W 1020,0 1,7 0 0,0
20.04.2018 21:00:00 8,3 6,5 7,7 13,5 13,3 20 11 31 17 WNW 1019,7 2,0 0 0,0
20.04.2018 20:00:00 9,3 6,3 9,4 14,2 13,5 23 13 32 17 W 1019,5 2,8 58 0,0
20.04.2018 19:00:00 10,7 6,6 12,8 14,8 13,6 23 12 34 18 W 1019,6 3,2 60 0,0
20.04.2018 18:00:00 11,8 7,0 15,6 15,3 13,6 26 14 40 22 W 1019,7 2,9 60 0,0
20.04.2018 17:00:00 12,1 7,6 16,9 15,8 13,4 25 14 39 21 WNW 1019,5 2,7 58 0,0
20.04.2018 16:00:00 11,3 7,2 17,3 16,2 13,2 26 14 36 20 W 1019,5 7 60 0,0
20.04.2018 15:00:00 13,1 7,7 20,0 16,2 12,8 23 12 33 18 WZW 1019,6 4,0 60 0,0
20.04.2018 14:00:00 14,2 8,7 22,1 15,7 12,5 22 12 31 17 ZW 1019,6 6 60 0,0
20.04.2018 13:00:00 17,1 9,2 24,7 14,9 12,1 19 10 35 19 ZZW 1019,6 7 60 0,0
20.04.2018 12:00:00 16,8 10,9 23,7 14,0 11,8 23 12 33 18 Z 1019,9 8 60 0,0
20.04.2018 11:00:00 16,3 11,0 22,0 13,2 11,7 26 14 34 18 Z 1020,2 7 60 0,0
20.04.2018 10:00:00 14,3 11,0 19,5 12,5 11,6 20 11 24 13 ZZO 1020,6 7 60 0,0
20.04.2018 09:00:00 13,8 10,6 17,0 12,0 11,6 20 11 24 13 ZZO 1021,0 7 60 0,0
20.04.2018 08:00:00 13,7 10,5 14,3 11,7 11,7 21 11 25 14 ZZO 1021,5 8 60 0,0
20.04.2018 07:00:00 13,4 10,5 11,3 11,7 11,8 17 9 22 12 ZZO 1021,7 7 2 0,0
20.04.2018 06:00:00 12,9 10,7 10,8 11,9 12,0 18 10 23 12 ZO 1022,2 5 0 0,0
20.04.2018 05:00:00 13,1 10,8 10,8 12,1 12,1 19 10 25 14 ZZO 1023,1 5 0 0,0
20.04.2018 04:00:00 13,4 11,1 11,3 12,3 12,2 21 11 24 13 ZZO 1023,9 6 0 0,0
20.04.2018 03:00:00 13,8 11,5 11,6 12,6 12,4 18 10 27 15 Z 1024,7 6 0 0,0
20.04.2018 02:00:00 14,5 11,8 12,6 12,8 12,5 23 12 31 17 ZZO 1025,2 7 0 0,0
20.04.2018 01:00:00 14,7 12,1 12,2 13,0 12,6 19 10 26 14 ZZO 1025,5 7 0 0,0
20.04.2018 00:00:00 14,8 11,6 13,0 13,3 12,8 22 12 26 14 OZO 1025,9 8 0 0,0
19.04.2018 23:00:00 15,8 12,0 14,1 13,6 12,9 24 13 29 15 O 1026,3 9 0 0,0
19.04.2018 22:00:00 16,3 12,6 14,6 13,9 13,0 21 12 27 15 O 1026,7 10 0 0,0
19.04.2018 21:00:00 17,8 12,9 15,3 14,3 13,1 16 8 22 12 O 1026,9 10 16 0,0
19.04.2018 20:00:00 18,9 10,1 17,5 14,9 13,1 17 9 24 13 ZZO 1026,8 10 60 0,0
19.04.2018 19:00:00 19,5 10,1 21,1 15,5 13,0 19 10 24 13 Z 1027,2 12 60 0,0
19.04.2018 18:00:00 21,3 11,4 24,5 16,0 12,8 19 10 29 16 Z 1027,7 9 60 0,0
19.04.2018 17:00:00 21,4 11,0 25,8 16,2 12,5 23 12 30 16 ZZO 1028,0 8 60 0,0
19.04.2018 16:00:00 20,7 12,0 26,3 16,0 12,1 23 12 32 17 ZZO 1028,6 7 60 0,0
19.04.2018 15:00:00 20,6 12,9 27,0 15,6 11,7 23 13 35 19 ZZO 1029,1 8 60 0,0
19.04.2018 14:00:00 20,1 13,0 27,0 14,9 11,2 25 13 34 18 ZZO 1029,3 7 60 0,0

tt = temperatuur
td = dauwpunt
tt 5cm = temperatuur 5cm
tt -5cm = temperatuur -5cm
tt -20cm = temperatuur -20cm
ff = windsnelheid
fx = windstoten
dd = windrichting
ppp = luchtdruk
vv = zicht
sd = Zonneschijnduur
rr = neerslag

Weerstations in de omgeving